Tracking 32954 objects as of 20-Jan-2026
HD Live streaming from Space Station
objects crossing your sky now

COSMOS 2236 (GLONASS)

Track COSMOS 2236 (GLONASS) now!
COSMOS 2236 (GLONASS) is classified as:


NORAD ID: 22513
Int'l Code: 1993-010B
Perigee: 19,127.0 km
Apogee: 19,146.6 km
Inclination: 64.8 °
Period: 675.7 minutes
Semi major axis: 25507 km
RCS: 3.1089 m2 (large)
Launch date: February 17, 1993
Source: Commonwealth of Independent States (former USSR) (CIS)
Launch site: TYURATAM MISSILE AND SPACE COMPLEX (TTMTR)
Your satellite tracking list
Your tracking list is empty




NASA's NSSDC Master Catalog

Two Line Element Set (TLE):
1 22513U 93010B   26018.13762341  .00000005  00000-0  00000-0 0  9995
2 22513  64.8051  75.1205 0003845  60.1168 301.8074  2.13104587256187
Source of the keplerian elements: AFSPC